DELTA 1 DEB

Satellite information

Favourite Embed

Satellite Type and Status

DEBRISIN ORBIT

Key statistics

Satellite DELTA 1 DEB at a glance.

Uptime

18991

Days in orbit

Revolutions

≈ 12.0

Per day

Orbit

SSO

Sun Synchronous Orbit

Inclination

101.8

Latest

Satellite identification and parameters

Extended collection of information and parameters for DELTA 1 DEB.

Object identification

Identified? True

Debris? True

Object name: DELTA 1 DEB

International designator: 1973-086HA

Object number (NORAD): 18870

Object ID (CCSDS): 18870

Country: UNITED STATES OF AMERICA (US)

Current information (Y/N): Y

RCS size: SMALL

Orbital parameters

Period: 120.498 minutes

Inclination: 101.7723 deg

SMA: 8081.274 km

Apoapsis: 1977.358 km

Periapsis: 1428.919 km

RAAN: 252.0163 deg

Eccentricy: 0.03393272

Argument of periapsis: 176.4664 deg

Mean anomaly: 183.8883 deg

Mean motion: 11.95041614 rev/day

Mean motion (dot): 0.0000021 rev/day2

B* drag term: 0.0027700236 1/REarth

Two-line elements (TLE)

Creation date: Nov. 2, 2025, 5:34 p.m.

Reference frame: TEME

Reference center: EARTH

Epoch: Nov. 2, 2025, 1:38 a.m. UTC

TLE line 0: 0 DELTA 1 DEB

TLE line 1: 1 18870U 73086HA 25306.06833972 .00000210 00000-0 27700-2 0 9993

TLE line 2: 2 18870 101.7723 252.0163 0339327 176.4664 183.8883 11.95041614555924

Live tracking on map

Real-time ground track for satellite DELTA 1 DEB.

In-orbit conjunctions

A list of the most updated potential collisions computed for object DELTA 1 DEB.

Target Orbit TCA Probability of collision Miss distance Type
COSMOS 1086 LEO 2025-10-04 01:34:36 0.0001316463 239.0 (m) PAYLOAD

Associated space launch

Meteorological satellite using radiometric imaging

DELTA 1 DEB was lifted into orbit during the mission ‘Delta 0300 | NOAA 3’, on board a Delta 0300 space rocket.

The launch took place on Nov. 6, 1973, 5:02 p.m. from Space Launch Complex 2W.

For more information about the launch, click the button.

Launch to space Delta 0300 | NOAA 3
Delta 0300 | NOAA 3

Agency: N/A

Status: Launch Successful

Launch date: Nov. 6, 1973, 5:02 p.m. UTC

Rocket: Delta 0300

Launch pad: Space Launch Complex 2W

Location: Vandenberg SFB, CA, USA

...

Latest news about this satellite

There are no fresh news available about this satellite. Check back as we update our databases every day.


Newsletter sign-up

Weekly statistics, charts and insights to help you stay on top of the space industry.